TimeCST,TemperatureF,Dew PointF,Humidity,Sea Level PressureIn,VisibilityMPH,Wind Direction,Wind SpeedMPH,Gust SpeedMPH,PrecipitationIn,Events,Conditions,WindDirDegrees,DateUTC
12:15 AM,12.2,5.0,73,30.60,10.0,North,9.2,-,N/A,,Clear,10,2013-12-07 06:15:00
12:35 AM,12.2,5.0,73,30.60,10.0,North,6.9,-,N/A,,Clear,10,2013-12-07 06:35:00
12:55 AM,12.2,5.0,73,30.61,10.0,North,6.9,-,N/A,,Clear,360,2013-12-07 06:55:00
1:15 AM,10.4,3.2,73,30.61,10.0,North,6.9,-,N/A,,Clear,360,2013-12-07 07:15:00
1:35 AM,10.4,5.0,79,30.61,10.0,North,8.1,-,N/A,,Clear,360,2013-12-07 07:35:00
1:55 AM,10.4,3.2,73,30.61,10.0,North,8.1,-,N/A,,Clear,350,2013-12-07 07:55:00
2:15 AM,10.4,5.0,79,30.61,10.0,North,8.1,-,N/A,,Clear,350,2013-12-07 08:15:00
2:35 AM,10.4,3.2,73,30.61,10.0,North,9.2,-,N/A,,Clear,360,2013-12-07 08:35:00
2:55 AM,10.4,3.2,73,30.62,10.0,North,8.1,-,N/A,,Clear,350,2013-12-07 08:55:00
3:15 AM,10.4,3.2,73,30.62,10.0,North,9.2,-,N/A,,Clear,350,2013-12-07 09:15:00
3:35 AM,10.4,3.2,73,30.62,10.0,North,9.2,-,N/A,,Clear,350,2013-12-07 09:35:00
3:55 AM,10.4,3.2,73,30.61,10.0,North,9.2,-,N/A,,Clear,360,2013-12-07 09:55:00
4:15 AM,10.4,3.2,73,30.61,10.0,North,8.1,-,N/A,,Clear,360,2013-12-07 10:15:00
4:35 AM,8.6,3.2,79,30.60,10.0,North,9.2,-,N/A,,Clear,360,2013-12-07 10:35:00
4:55 AM,8.6,3.2,79,30.61,10.0,North,8.1,-,N/A,,Clear,360,2013-12-07 10:55:00
6:18 AM,6.8,3.2,85,30.62,10.0,NNW,9.2,-,N/A,,Clear,340,2013-12-07 12:18:00
6:50 AM,6.8,3.2,85,30.62,10.0,NNW,11.5,-,N/A,,Clear,340,2013-12-07 12:50:00
8:50 AM,8.6,5.0,85,30.63,10.0,North,9.2,-,N/A,,Clear,350,2013-12-07 14:50:00
9:50 AM,14.0,6.8,73,30.64,10.0,NE,11.5,-,N/A,,Scattered Clouds,40,2013-12-07 15:50:00
10:50 AM,15.8,6.8,68,30.63,10.0,NE,13.8,-,N/A,,Mostly Cloudy,40,2013-12-07 16:50:00
11:50 AM,19.4,6.8,58,30.58,10.0,NE,13.8,-,N/A,,Mostly Cloudy,50,2013-12-07 17:50:00
12:50 PM,19.4,6.8,58,30.49,10.0,NE,17.3,-,N/A,,Overcast,50,2013-12-07 18:50:00
1:50 PM,19.4,6.8,58,30.44,10.0,NE,11.5,-,N/A,,Overcast,50,2013-12-07 19:50:00
2:50 PM,42.8,6.8,23,30.43,10.0,NE,9.2,-,N/A,,Overcast,50,2013-12-07 20:50:00
3:50 PM,42.8,6.8,23,30.41,10.0,NE,9.2,-,N/A,,Overcast,40,2013-12-07 21:50:00
4:50 PM,42.8,6.8,23,30.40,10.0,East,8.1,-,N/A,,Overcast,80,2013-12-07 22:50:00
5:50 PM,42.8,8.6,25,30.36,10.0,NNE,11.5,-,N/A,,Overcast,30,2013-12-07 23:50:00
6:50 PM,42.8,8.6,25,30.34,10.0,East,9.2,-,N/A,,Overcast,80,2013-12-08 00:50:00
7:50 PM,21.2,10.4,63,30.33,10.0,East,9.2,-,N/A,,Overcast,90,2013-12-08 01:50:00
8:15 PM,21.2,10.4,63,30.31,10.0,ESE,10.4,-,N/A,,Overcast,110,2013-12-08 02:15:00
8:35 PM,21.2,10.4,63,30.32,10.0,ESE,11.5,-,N/A,,Overcast,110,2013-12-08 02:35:00
8:50 PM,42.8,8.6,25,30.31,10.0,East,10.4,-,N/A,,Overcast,90,2013-12-08 02:50:00
8:55 PM,21.2,10.4,63,30.30,10.0,ESE,10.4,-,N/A,,Overcast,110,2013-12-08 02:55:00
9:15 PM,21.2,10.4,63,30.29,10.0,East,10.4,-,N/A,,Overcast,100,2013-12-08 03:15:00
9:35 PM,21.2,10.4,63,30.30,10.0,ESE,8.1,-,N/A,,Overcast,110,2013-12-08 03:35:00
9:55 PM,21.2,12.2,68,30.29,10.0,East,8.1,-,N/A,,Overcast,100,2013-12-08 03:55:00
10:15 PM,21.2,12.2,68,30.29,10.0,ESE,8.1,-,N/A,,Overcast,120,2013-12-08 04:15:00
10:35 PM,21.2,12.2,68,30.28,10.0,ESE,9.2,-,N/A,,Overcast,120,2013-12-08 04:35:00
10:55 PM,21.2,12.2,68,30.28,10.0,ESE,8.1,-,N/A,,Overcast,120,2013-12-08 04:55:00
11:15 PM,21.2,12.2,68,30.27,10.0,ESE,8.1,-,N/A,,Overcast,120,2013-12-08 05:15:00
11:35 PM,21.2,12.2,68,30.25,10.0,ESE,8.1,-,N/A,,Overcast,120,2013-12-08 05:35:00
11:55 PM,21.2,12.2,68,30.24,10.0,SE,8.1,-,N/A,,Mostly Cloudy,130,2013-12-08 05:55:00